• Join FlightAware (Why Join?)
  • Login
  • US Flag 
08:32AM EDT


 

Airport Tracker/Info


-or-


 

Live Flight TrackerFlight Track Log ✈ RPA3159 ✈ 20-May-2013 ✈ KBTV - KPHL

Flight Track Log - Related Links

Times and Time Zones

All times are in EDT time to prevent confusion due to time zone crossing. See the RPA3159 flight status page for this flight to view local times or setup timezone preferences in your user account.

Time Position Orientation Groundspeed Altitude Reporting Facility
EDT Latitude Longitude Course Direction KTS MPH feet Rate Location/Type
12:39PM 44.3761 -73.0847 195° South 241 277 4,200  Level Boston Center
12:40PM 44.2016 -73.2500 180° South  Level FlightAware Approximate
12:40PM 44.3053 -73.1131 196° South 260 299 7,400  Level Boston Center
12:41PM 44.1127 -73.2828 195° South  Level FlightAware Approximate
12:41PM 44.2278 -73.1528 200° South 290 334 10,300  Level Boston Center
12:42PM 44.0234 -73.3144 194° South  Level FlightAware Approximate
12:42PM 44.1525 -73.2183 212° Southwest 316 364 11,600  Level Boston Center
12:43PM 43.9213 -73.3484 193° South  Level FlightAware Approximate
12:43PM 44.0517 -73.3094 213° Southwest 357 411 14,500  Level Boston Center
12:44PM 43.8199 -73.3864 195° South  Level FlightAware Approximate
12:44PM 43.9636 -73.3889 213° Southwest 372 428 16,500  Level Boston Center
12:45PM 43.8753 -73.4711 214° Southwest 386 444 18,700 1,980 Climbing Boston Center
12:46PM 43.7850 -73.5531 213° Southwest 391 450 20,500 1,560 Climbing Boston Center
12:47PM 43.6967 -73.6317 213° Southwest 407 468 21,900 1,560 Climbing Boston Center
12:48PM 43.5894 -73.7272 213° Southwest 418 481 23,700 1,500 Climbing Boston Center
12:49PM 43.4883 -73.8167 213° Southwest 423 487 25,000 1,140 Climbing Boston Center
12:50PM 43.4061 -73.8861 212° Southwest 429 494 26,000 480 Climbing Boston Center
12:51PM 43.2903 -73.9919 214° Southwest 448 516 26,000  Level Boston Center
12:52PM 43.1825 -74.0886 213° Southwest 454 522 26,000  Level Boston Center
12:53PM 43.0747 -74.1853 213° Southwest 460 529 26,000  Level Boston Center
12:54PM 42.9692 -74.2789 213° Southwest 465 535 26,000  Level Boston Center
12:55PM 42.8614 -74.3719 212° Southwest 465 535 26,000  Level Boston Center
12:56PM 42.7533 -74.4647 212° Southwest 465 535 26,000  Level Boston Center
12:57PM 42.6453 -74.5600 213° Southwest 465 535 26,000  Level Boston Center
12:58PM 42.5394 -74.6494 212° Southwest 465 535 26,000 -300 Level Boston Center
01:01PM 42.4192 -74.7340 212° Southwest  Level FlightAware Approximate
01:01PM 42.2278 -74.9183 212° Southwest 449 517 25,000  Level New York Center
01:02PM 42.1161 -75.0092 211° Southwest 444 511 22,500 -2,340 Descending New York Center
01:03PM 42.0197 -75.0894 212° Southwest 433 498 20,300 -1,740 Descending New York Center
01:04PM 41.9231 -75.1697 212° Southwest 419 482 19,000 -780 Descending New York Center
01:05PM 41.8286 -75.2469 211° Southwest 409 471 18,800 -660 Descending New York Center
01:06PM 41.7342 -75.3211 210° Southwest 404 465 17,800 -1,200 Descending New York Center
01:07PM 41.6525 -75.3878 211° Southwest 399 459 16,400 -1,800 Descending New York Center
01:08PM 41.5581 -75.4617 210° Southwest 399 459 14,300 -2,160 Descending New York Center
01:09PM 41.4653 -75.5381 212° Southwest 380 437 12,100 -1,200 Descending New York Center
01:10PM 41.3794 -75.6039 210° Southwest 372 428 12,000 -60 Descending New York Center
01:11PM 41.2889 -75.6747 210° Southwest 372 428 12,000  Level New York Center
01:12PM 41.1950 -75.6789 182° South 361 415 12,000  Level New York Center
01:13PM 41.0942 -75.6469 167° South 372 428 12,000  Level New York Center
01:14PM 40.9936 -75.6122 165° South 377 434 12,000  Level New York Center
01:15PM 40.8950 -75.5806 166° South 371 427 12,000  Level New York Center
01:16PM 40.7861 -75.5428 165° South 371 427 12,000  Level New York Center
01:17PM 40.6872 -75.5111 166° South 366 421 12,000  Level New York Center
01:18PM 40.5908 -75.4772 165° South 371 427 12,000 -660 Level New York Center
01:19PM 40.4981 -75.4489 167° South 364 419 10,700 -1,140 Descending New York Center
01:20PM 40.4203 -75.4136 161° South 323 372 9,800 -960 Descending New York Center
01:21PM 40.3428 -75.3703 157° South 308 354 8,800 -1,020 Descending New York Center
01:22PM 40.2775 -75.3333 157° South 293 337 7,900 -1,020 Descending New York Center
01:23PM 40.1939 -75.2869 157° South 298 343 6,800 -960 Descending New York Center
01:24PM 40.1267 -75.2475 156° South 293 337 6,000 -420 Descending New York Center
01:25PM 40.0611 -75.2106 157° South 288 331 6,000  Level New York Center
01:26PM 40.0000 -75.1833 161° South 230 265 6,000  Level Philadelphia TRACON
01:27PM 39.9833 -75.1000 105° East 221 254 6,000 -300 Level Philadelphia TRACON
01:28PM 40.0000 -75.0333 72° East 219 252 5,400 -720 Descending Philadelphia TRACON
01:29PM 40.0333 -74.9333 66° East 220 253 4,400 -720 Descending Philadelphia TRACON
01:30PM 40.0000 -74.8833 131° Southeast 197 227 4,000 -240 Descending Philadelphia TRACON
01:31PM 39.9500 -74.9000 194° South 189 217 4,000 -480 Level Philadelphia TRACON
01:32PM 39.9333 -74.9667 252° West 167 192 3,000 -540 Descending Philadelphia TRACON
01:33PM 39.9167 -75.0167 247° West 172 198 3,000  Level Philadelphia TRACON